Regional Weather Roundup
Issued by NWS

Home | Current Version | Previous Version | Graphics & Text | Print | Product List | Glossary On
Versions: 1 2 3 4 5 6 7 8 9 10 11 12 13 14 15 16 17 18 19 20 21 22 23 24 25 26 27 28 29 30 31 32 33 34 35 36 37 38 39 40 41 42 43 44 45 46 47 48 49 50
000
ASUS43 KIND 291159
RWRIN

WEATHER ROUNDUP FOR INDIANA
NATIONAL WEATHER SERVICE INDIANAPOLIS IN
800 AM EDT SAT APR 29 2017

NOTE: "FAIR" INDICATES FEW OR NO CLOUDS BELOW 12,000 FEET WITH NO
SIGNIFICANT WEATHER AND/OR OBSTRUCTIONS TO VISIBILITY.

* - STATION DOES NOT REPORT WEATHER SUCH AS PRECIPITATION OR FOG.

+ - STATION NOT QUALITY CONTROLLED BY THE NATIONAL WEATHER SERVICE.
    USE DATA WITH CAUTION...ESPECIALLY DEWPOINT AND RELATIVE
    HUMIDITY OBSERVATIONS.

INZ001>003-010>013-019-020-291300-
NORTHWEST INDIANA

CITY           SKY/WX    TMP DP  RH WIND       PRES   REMARKS
GARY /AIRPORT/ CLOUDY    46  39  76 N12G23    30.15R
MONTICELLO +   LGT RAIN  51  49  95 N9        30.02S
6HR MIN TEMP:  51; 6HR MAX TEMP:  54; 6HR PCP:  0.09;

RENSSELAER +   LGT RAIN  48  43  81 N10       30.06S

$$

LMZ046-743>745-291300-
SOUTHERN LAKE MICHIGAN

STATION/POSITION TIME  TEMP    WIND        PRES    WAVE
                       AIR SEA DIR/SP/G            HT
                 (UTC) (F)     (DEG/KT/KT) (MB)    (FT)
BURNS HARBOR     1140   45      20/ 19/ 22 1020.3R
MICHIGAN CITY    1130   45      10/ 22/ 25   N/A
5NW MICH CITY    1150   44 46                N/A     5

$$

INZ004-005-014>016-021>024-291300-
NORTH CENTRAL INDIANA

CITY           SKY/WX    TMP DP  RH WIND       PRES   REMARKS
ELKHART        SUNNY     50  41  71 NE10      30.08
GOSHEN         CLOUDY    52  45  77 N10       30.06F
6HR MIN TEMP:  51; 6HR MAX TEMP:  54;

SOUTH BEND     CLOUDY    48  41  76 N13       30.09S
6HR MIN TEMP:  48; 6HR MAX TEMP:  55;


$$

INZ006>009-017-018-025>027-291300-
NORTHEAST INDIANA

CITY           SKY/WX    TMP DP  RH WIND       PRES   REMARKS
ANGOLA *+      CLOUDY    52  39  62 N7        30.07R
FORT WAYNE     LGT RAIN  56  53  90 NE8       30.05R FOG
6HR MIN TEMP:  54; 6HR MAX TEMP:  56; 6HR PCP:  0.02;

KENDALLVILLE + CLOUDY    53  49  87 NE10      30.05F

$$

INZ028-029-035-036-043>045-051>053-291300-
WEST CENTRAL INDIANA

CITY           SKY/WX    TMP DP  RH WIND       PRES   REMARKS
CRAWFORDSVL +  HVY RAIN  52  52 100 N6        30.04R
6HR MIN TEMP:  52; 6HR MAX TEMP:  54; 6HR PCP:  0.52;

GREENCASTLE +  RAIN      55  55 100 N8        29.98F
LAFAYETTE      LGT RAIN  52  52 100 N8        30.04R FOG
6HR MIN TEMP:  52; 6HR MAX TEMP:  54; 6HR PCP:  0.19;

TERRE HAUTE    TSTM      57  55  93 NE10      29.94F FOG
6HR MIN TEMP:  56; 6HR MAX TEMP:  57;


$$

INZ030>032-037>040-046>048-054>057-064-065-291300-
CENTRAL INDIANA

CITY           SKY/WX    TMP DP  RH WIND       PRES   REMARKS
COLUMBUS       LGT RAIN  59  59 100 N5        29.99R
INDIANAPOLIS   TSTM      57  56  96 N10       29.98F FOG
6HR MIN TEMP:  57; 6HR MAX TEMP:  57; 6HR PCP:  0.76;

-EAGLE CREEK   RAIN      57  55  93 N6        29.97F FOG
6HR MIN TEMP:  57; 6HR MAX TEMP:  58; 6HR PCP:  0.62;

KOKOMO +       LGT RAIN  54  53  97 NE6       30.04R FOG
6HR MIN TEMP:  53; 6HR MAX TEMP:  55; 6HR PCP:  0.12;

SHELBYVILLE    LGT RAIN  60  57  89 NE5       29.98R FOG
6HR MIN TEMP:  60; 6HR MAX TEMP:  63; 6HR PCP:  1.05;


$$

INZ033-034-041-042-049-050-058-059-291300-
EAST CENTRAL INDIANA

CITY           SKY/WX    TMP DP  RH WIND       PRES   REMARKS
MUNCIE         LGT RAIN  57  55  93 NE5       30.01S FOG
6HR MIN TEMP:  57; 6HR MAX TEMP:  58; 6HR PCP:  0.36;

RICHMOND +     LGT RAIN  59  59 100 CALM      30.01F

$$

INZ060-061-067>069-081>083-085>088-291300-
SOUTHWEST INDIANA

CITY           SKY/WX    TMP DP  RH WIND       PRES   REMARKS
EVANSVILLE     TSTM      65  63  93 NE9       29.96R VSB 3/4
6HR MIN TEMP:  65; 6HR MAX TEMP:  68; 6HR PCP:  1.62;


$$

INZ062-063-066-070>080-084-089>092-291300-
SOUTH CENTRAL AND SOUTHEAST INDIANA

CITY           SKY/WX    TMP DP  RH WIND       PRES   REMARKS
BLOOMINGTON    LGT RAIN  61  58  90 SE7       29.97R
6HR MIN TEMP:  60; 6HR MAX TEMP:  62; 6HR PCP:  0.43;

MADISON *+     CLOUDY    64  63  94 NW15G25   30.03R
SEYMOUR +      TSTM     N/A N/A N/A NE15      29.93F

$$





USA.gov is the U.S. government's official web portal to all federal, state and local government web resources and services.